Regional Weather Roundup
Issued by NWS Grand Forks, ND

Home | Current Version | Previous Version | Graphics & Text | Print | Product List | Glossary On
Versions: 1 2 3 4 5 6 7 8 9 10 11 12 13 14 15 16 17 18 19 20 21 22 23 24 25 26 27 28 29 30 31 32 33 34 35 36 37 38 39 40 41 42 43 44 45 46 47 48 49 50
000
ASUS43 KFGF 181710
RWRFGF
PRAIRIE TO PINES  WEATHER ROUNDUP
NATIONAL WEATHER SERVICE EASTERN NORTH DAKOTA/GRAND FORKS ND
1200 PM CDT THU SEP 18 2014

 **SATELLITE DATA USED TO AUGMENT SKY COVER AT AUTOMATED STATIONS**
 *****  WEATHER ACROSS EASTERN NORTH DAKOTA  *****

CITY           SKY/WX    TMP DP  RH WIND       PRES   REMARKS
GRAND FORKS    CLOUDY    55  51  86 S13       29.96F
GRAND FRKS AFB NOT AVBL
GRAND FRKS NWS   N/A     54 N/A N/A S7          N/A
DEVILS LAKE    SUNNY     66  52  59 S15       29.86F
FARGO          SUNNY     61  53  75 S13       29.97F
WAHPETON ARPT  PTSUNNY   57  50  77 SE13G18   30.00F
$$

 ***** WEATHER ACROSS CENTRAL AND WESTERN NORTH DAKOTA  *****

CITY           SKY/WX    TMP DP  RH WIND       PRES   REMARKS
BISMARCK       SUNNY     73  58  59 SE16      29.83F
MINOT          SUNNY     71  53  52 SE22G30   29.75F
JAMESTOWN      SUNNY     68  56  65 SE12      29.90F
MINOT AFB      NOT AVBL
GARRISON         N/A     70  57  63 S14G20    29.78F
WILLISTON      MOSUNNY   71  54  54 S6        29.70F
DICKINSON      MOSUNNY   70  56  61 S16       29.76F
HETTINGER      SUNNY     69  56  62 SE10      29.82F
$$

 *****  OTHER AIRPORT OBSERVATIONS IN OUR AREA  *****

CITY           SKY/WX    TMP DP  RH WIND       PRES   REMARKS
WALHALLA         N/A     55  52  88 SE13      29.92F
GRAFTON AIRPOR CLOUDY    52  50  93 S17       29.95F FOG
VALLEY CITY AR FAIR      59  59 100 SE10      29.94F
CANDO          FAIR      66  54  63 S20       29.86F
CAVALIER APRT  CLOUDY    54  48  82 SE9       29.93F
GWINNER        SUNNY     63  55  77 SE15      29.96F
SHEYENNE NWR     N/A     57  53  88 SE12      29.95
ROLLA          FAIR      66  52  59 S16G25    29.85F
 ***** THE ABOVE OBSERVATIONS ARE NON NWS ARE NOT QUALITY
       CONTROLLED AND MAY MIS-REPORT RAIN FOR SNOW...
$$

  *****  WEATHER ACROSS NORTHERN MINNESOTA  *****

CITY           SKY/WX    TMP DP  RH WIND       PRES   REMARKS
FLAG ISLAND    CLOUDY    46  45  93 SE16      30.02S
WARROAD        CLOUDY    48  45  87 SE8       30.02F
ROSEAU         CLOUDY    52  46  82 SE10      30.00F
HALLOCK        CLOUDY    57  52  82 S15       29.95F
THF RVR FALLS  SUNNY     57  50  77 SE12      29.98F
BAUDETTE       CLOUDY    46  44  93 SE9       30.05F
WASKISH        CLOUDY    50  46  87 SE3       30.06S
CROOKSTON      SUNNY     61  54  77 S10       29.97F
STEPHEN NDAWN    N/A     55  54  94 S12         N/A
GREENBUSH NDAW   N/A     52  50  93 SE9         N/A
$$
  *****  WEATHER ACROSS CENTRAL AND WEST MINNESOTA  *****

CITY           SKY/WX    TMP DP  RH WIND       PRES   REMARKS
FOSSTON        SUNNY     63  54  72 SE3       30.00F
BEMIDJI        SUNNY     56  45  64 SE8       30.04F
PARK RAPIDS      N/A     53  45  74 SE10      30.04F
ELBOW LAKE     CLOUDY    56  51  81 SE14      30.02F
WADENA         SUNNY     54  46  76 SE12      30.05S
DETROIT LAKES  PTSUNNY   54  50  87 SE13      30.02F
MOORHEAD       SUNNY     63  55  77 S10       29.98F
FERGUS FALLS   MOSUNNY   61  48  63 S16       30.02S
MORRIS MN      MOSUNNY   57  54  88 SE14      30.02F
STAPLES        CLOUDY    52  45  76 SE5       30.07F
$$
  *****  WEATHER ELSEWHERE ACROSS MINNESOTA  *****

CITY           SKY/WX    TMP DP  RH WIND       PRES   REMARKS
DULUTH         CLOUDY    48  39  71 E13       30.14F
INTRNTL FALLS  CLOUDY    47  41  80 SE12      30.08F
ELY            CLOUDY    46  37  71 SE9       30.14S
CLOQUET        CLOUDY    46  39  76 E6        30.13F
WHEATON        CLOUDY    54  52  94 SE14      30.03S
BRAINERD       CLOUDY    49  45  86 SE8       30.10F
HIBBING        CLOUDY    52  41  66 S10       30.11F
ALEXANDRIA     CLOUDY    51  49  92 SE12      30.07S
SAINT CLOUD    PTSUNNY   59  50  72 SE5       30.10S
MINNEAPOLIS    MOSUNNY   61  53  75 E8        30.10S
$$

  *****  WEATHER ACROSS SOUTH DAKOTA  *****

CITY           SKY/WX    TMP DP  RH WIND       PRES   REMARKS
SIOUX FALLS    MOSUNNY   73  55  53 S18G25    30.02S
BROOKINGS      NOT AVBL
WATERTOWN      PTSUNNY   70  60  70 S17G25    29.98F
HURON          PTSUNNY   67  62  84 S16       29.93F
SISSETON         N/A     55  54  96 S12       29.98F
ABERDEEN       SUNNY     73  59  61 S15       29.91F
MITCHELL       MOSUNNY   74  63  68 S17G23    29.96F
PIERRE         SUNNY     74  58  57 S21       29.85F
MOBRIDGE       SUNNY     74  62  66 S16G23    29.83F
RAPID CITY     SUNNY     74  55  51 SE5       29.85F
$$

  *****  SOME WEATHER IN NEARBY STATES *****

CITY           SKY/WX    TMP DP  RH WIND       PRES   REMARKS
GLASGOW MT     MOSUNNY   69  54  58 S7        29.65S
GREAT FALLS MT CLOUDY    70  45  40 S22G29    29.75R
CHEYENNE WY    SUNNY     82  34  17 S7        30.09F
SCOTTSBLUFF NE SUNNY     71  55  56 CALM      29.96F
OMAHA NE       MOSUNNY   70  57  63 SE8       30.04S
DES MOINES IA  MOSUNNY   65  56  72 VRB5      30.09S
DAVENPORT IA   SUNNY     70  49  47 E9        30.12F
CHICAGO IL     PTSUNNY   67  54  63 N6        30.14F
EAU CLAIRE WI  CLOUDY    53  49  86 SE8       30.16R
LA CROSSE WI   PTSUNNY   60  52  74 E5        30.15F
$$

  *****  SOME NATIONAL WEATHER *****

CITY           SKY/WX    TMP DP  RH WIND       PRES   REMARKS
LA GUARDIA NY  MOSUNNY   73  46  38 W8        29.99F
RALEIGH NC     MOSUNNY   77  60  55 CALM      30.01F
ATLANTA GA     MOSUNNY   80  61  52 E7        30.00F
NEW ORLEANS LA CLOUDY    88  71  57 CALM      29.92F HX  94
OKLAHOMA CITY  PTSUNNY   77  63  61 SE16G24   29.99S
ALBUQUERQUE NM MOSUNNY   70  52  52 VRB6      30.10S
SALT LAKE CITY MOSUNNY   83  46  27 SE13      29.91F
LOS ANGELES CA MOSUNNY   71  62  73 W9        29.89R
BOISE ID       CLOUDY    73  43  33 SE3       29.84R
SEATTLE WA     CLOUDY    62  59  90 S8        29.82R
$$

*** WEATHER ACROSS MANITOBA...SASKATCHEWAN AND ONTARIO ***
                ***ONTARIO***

CITY           SKY/WX    TMP DP  RH WIND       PRES   REMARKS
GERALDTON      PTSUNNY   45  32  61 SW5       30.20S
THUNDER BAY    PTSUNNY   48  34  57 SE10      30.22S
SIOUX LOOKOUT  PTSUNNY   45  36  70 SE10G20   30.10F
TORONTO        CLOUDY    52  45  76 N10       30.16R
BIG TROUT LK   SUNNY     45  27  49 S9        30.08F
PICKLE LAKE    PTSUNNY   48  28  46 S10G20    30.11F
DRYDEN         NOT AVBL
KENORA         NOT AVBL
$$
                *** MANITOBA***

CITY           SKY/WX    TMP DP  RH WIND       PRES   REMARKS
BRANDON        NOT AVBL
DAUPHIN        SUNNY     63  50  63 SE9       29.74F
ISLAND LAKE    PTSUNNY   48  37  66 SE9       29.91F
PILOT MOUND    NOT AVBL
THE PAS        CLOUDY    55  46  71 SE15G22   29.62F
THOMPSON       NOT AVBL
WINNIPEG       PTSUNNY   57  50  77 SE15      29.93F
LYNN LAKE      CLOUDY    46  43  87 S12G23    29.52F
GILLAM         LGT RAIN  39  36  87 S13       29.80F
$$
                ***SASKATCHEWAN***

CITY           SKY/WX    TMP DP  RH WIND       PRES   REMARKS
ESTEVAN        PTSUNNY   68  55  64 S13       29.69F
KINDERSLEY     CLOUDY    68  50  52 W8G17     29.53F
LLOYDMINSTER   CLOUDY    54  50  87 NW2       29.52F
PRINCE ALBERT  PTSUNNY   61  52  72 S8        29.51F
REGINA         PTSUNNY   63  52  67 S15       29.61F
YORKTON        SUNNY     61  50  67 S16G23    29.65F
N. BATTLEFORD  PTSUNNY   57  52  82 NW3       29.52F
LA RONGE       NOT AVBL
SASKATOON      PTSUNNY   63  50  63 S13       29.51F
SWIFT CURRENT  SUNNY     73  50  43 SW12      29.58S
$$
NOTE: THESE ARE AUTOMATED STATIONS WITH LIMITED QUALITY CONTROL
      "FAIR" INDICATES FEW OR NO CLOUDS BELOW 12,000 FEET WITH NO
      SIGNIFICANT WEATHER AND/OR OBSTRUCTIONS TO VISIBILITY.
      SKY/WX - SKY CONDITION AND SIGNIFICANT WEATHER.
      TMP - AIR TEMPERATURE.    DP   - DEWPOINT TEMPERATURE.
      RH  - RELATIVE HUMIDITY.  PRES - PRESSURE.
      HX  - HEAT INDEX.         WCI  - WIND CHILL INDEX.
$



USA.gov is the U.S. government's official web portal to all federal, state and local government web resources and services.